Home   Weather   Helsinki   Past weeks

Flag for Finland Past Weather in Helsinki, Finland — Yesterday and Last 2 Weeks

Now
39 °F

Sunny.


Feels Like: 33 °F
Forecast: 36 / 49 °F
Wind: 9 mph from Southwest

Location: Helsinki-Vantaa

Current Time: May 1, 2017 at 7:35:01 am

Latest Report: May 1, 2017 at 7:20 am


Visibility: 10 mi

Pressure: 30.27 "Hg

Humidity: 75%

Dew Point: 32 °F

Location of HelsinkiLocation

Past Weather in Helsinki — Graph

°F

Helsinki Temperature Yesterday

Maximum temperature yesterday: 41 °F (at 4:20 pm)
Minimum temperature yesterday: 32 °F (at 12:20 am)
Average temperature yesterday: 35 °F

High & Low Weather Summary for the Past Weeks

 TemperatureHumidityPressure
High50 °F (Apr 21, 3:50 pm)100% (Apr 21, 2:20 am)30.51 "Hg (Apr 21, 2:20 am)
Low18 °F (Apr 19, 5:50 am)30% (Apr 17, 5:20 pm)29.18 "Hg (Apr 22, 4:20 am)
Average36 °F72%29.85 "Hg
* Reported Apr 16 5:20 am — May 1 5:50 am, Helsinki, Weather by CustomWeather, © 2017

Note: Actual official high and low records may vary slightly from our data, if they occured in-between our weather recording intervals... More about our weather records

Advertising

Helsinki Weather History for the Previous 24 Hours

Scroll right to see more
 ConditionsComfort  
Time TempWeatherWind HumidityBarometerVisibility
5:50 am
Mon, May 1
37 °FSunny.8 mph70%30.24 "Hg10 mi
5:20 am37 °FSunny.13 mph75%30.24 "Hg10 mi
4:50 am36 °FClear.13 mph81%30.24 "Hg10 mi
4:20 am36 °FClear.15 mph81%30.24 "Hg10 mi
3:20 am36 °FClear.14 mph81%30.24 "Hg10 mi
2:50 am36 °FClear.15 mph87%30.24 "Hg10 mi
2:20 am36 °FClear.14 mph87%30.24 "Hg10 mi
1:50 am36 °FClear.12 mph87%30.24 "Hg10 mi
1:20 am34 °FClear.10 mph93%30.24 "Hg10 mi
12:50 am34 °FClear.9 mph87%30.21 "Hg10 mi
12:20 am32 °FClear.7 mph87%30.21 "Hg10 mi
11:50 pm
Sun, Apr 30
34 °FClear.7 mph81%30.21 "Hg10 mi
11:20 pm34 °FClear.7 mph81%30.18 "Hg10 mi
10:50 pm34 °FClear.8 mph81%30.18 "Hg10 mi
10:20 pm36 °FClear.9 mph75%30.18 "Hg10 mi
9:50 pm34 °FPassing clouds.7 mph81%30.18 "HgN/A
9:20 pm36 °FPassing clouds.7 mph75%30.18 "HgN/A
8:50 pm36 °FScattered clouds.8 mph81%30.15 "HgN/A
8:20 pm37 °FPartly sunny.10 mph75%30.15 "HgN/A
7:50 pm37 °FPartly sunny.13 mph75%30.15 "HgN/A
7:20 pm37 °FPartly sunny.15 mph75%30.12 "HgN/A
6:50 pm37 °FPartly sunny.14 mph75%30.12 "HgN/A
6:20 pm37 °FScattered showers. Partly sunny.13 mph81%30.09 "HgN/A
5:50 pm37 °FScattered showers. Partly sunny.14 mph87%30.09 "HgN/A
5:20 pm37 °FSprinkles. Broken clouds.15 mph87%30.07 "HgN/A
4:50 pm37 °FSnow flurries. Partly sunny.17 mph75%30.07 "Hg4 mi
4:20 pm41 °FSprinkles. Partly sunny.16 mph81%30.04 "HgN/A
3:50 pm39 °FScattered showers. Scattered clouds.15 mph87%30.04 "HgN/A
3:20 pm39 °FScattered showers. Broken clouds.12 mph81%30.04 "HgN/A
2:50 pm39 °FScattered showers. Partly sunny.9 mph81%30.01 "HgN/A
2:20 pm37 °FScattered showers. Partly sunny.12 mph81%30.01 "HgN/A
1:50 pm37 °FScattered showers. Partly sunny.13 mph87%30.01 "HgN/A
1:20 pm37 °FScattered showers. Partly sunny.13 mph87%29.98 "HgN/A
12:50 pm37 °FScattered showers. Broken clouds.14 mph81%29.98 "HgN/A
12:20 pm36 °FScattered showers. Partly sunny.15 mph93%29.95 "HgN/A
11:50 am36 °FPartly sunny.15 mph93%29.95 "HgN/A
11:20 am36 °FBroken clouds.14 mph87%29.92 "HgN/A
10:50 am34 °FLight rain. Broken clouds.14 mph93%29.92 "HgN/A
10:20 am34 °FPartly sunny.14 mph93%29.89 "HgN/A
9:50 am34 °FPartly sunny.12 mph93%29.89 "HgN/A
9:20 am34 °FLight rain. Partly sunny.10 mph93%29.86 "Hg4 mi
8:50 am34 °FLight rain. Partly sunny.9 mph93%29.86 "Hg4 mi
8:20 am34 °FLight rain. Partly sunny.9 mph93%29.83 "Hg4 mi
7:50 am34 °FDrizzle. Partly sunny.9 mph93%29.83 "Hg4 mi
7:20 am32 °FPartly sunny.7 mph100%29.83 "HgN/A
Weather by CustomWeather, © 2017

See weather overviewHow to use our weather pages